Simultaneous Nadir Overpasses (SNOs) Predictions

Prediction of SNOs between METOP-B and TERRA Satellite Orbit:

Table of predicted SNOs for the next 14.0 days since TLE Epoch: 11/26/2022
Index Date (METOP-B) Time (METOP-B) Lat,Lon (METOP-B) SZA (METOP-B ) Date (TERRA) Time (TERRA) Lat,Lon (TERRA) SZA (TERRA ) Distance(km) Time Diff (sec)
1 11/27/2022 16:29:42 -81.01, 149.65 75.81 11/27/2022 16:30:01 -81.02, 149.69 75.79 1.03 19
2 11/27/2022 17:20:21 81.04, -42.41 104.29 11/27/2022 17:19:22 81.05, -42.29 104.28 2.24 59
3 11/30/2022 08:41:24 -81.00, -93.51 75.40 11/30/2022 08:41:44 -81.00, -93.54 75.40 0.62 20
4 11/30/2022 09:32:03 81.03, 74.41 104.68 11/30/2022 09:31:05 81.03, 74.47 104.66 0.96 58
5 12/03/2022 00:53:05 -81.01, 23.65 75.01 12/03/2022 00:53:26 -81.00, 23.48 75.03 3.24 21
6 12/03/2022 01:43:43 81.05,-168.06 105.12 12/03/2022 01:42:46 81.05,-168.17 105.09 1.99 57
7 12/05/2022 17:04:45 -81.01, 140.77 74.68 12/05/2022 17:05:06 -81.01, 140.73 74.67 0.76 21
8 12/05/2022 17:55:24 81.03, -51.31 105.41 12/05/2022 17:54:27 81.04, -51.27 105.39 0.77 57
9 12/08/2022 09:16:27 -80.99,-102.51 74.45 12/08/2022 09:16:48 -80.99,-102.47 74.44 0.68 21



Historial Predications of SNOs between METOP-B and TERRA
